Change the Weather History Date:

Tuesday, July 1, 2014

  Actual Average Record
Temperature  
Mean Temperature 74 °F 74 °F  
Max Temperature 84 °F 85 °F 102 °F (1970)
Min Temperature 64 °F 64 °F 47 °F (1988)
Degree Days  
Heating Degree Days 0 0  
Month to date heating degree days 0 0  
Since 1 June heating degree days 6 22  
Since 1 July heating degree days 0 0  
Cooling Degree Days 9 10  
Month to date cooling degree days 9 10  
Year to date cooling degree days 331 304  
Since 1 June cooling degree days 234 227  
Growing Degree Days 23 (Base 50)    
Moisture  
Dew Point 65 °F    
Average Humidity 70    
Maximum Humidity 93    
Minimum Humidity 47    
Precipitation  
Precipitation 0.63 in 0.13 in 1.50 in (1993)
Month to date precipitation 0.63 0.13  
Year to date precipitation 17.93 18.25  
Sea Level Pressure  
Sea Level Pressure 29.80 in    
Wind  
Wind Speed 7 mph (WSW)    
Max Wind Speed 22 mph    
Max Gust Speed 30 mph    
Visibility 9 miles    
Events Rain , Thunderstorm    
T = Trace of Precipitation, MM = Missing Value Source: NWS Daily Summary

Daily Weather History Graph

Daily Weather History Graph

Search for Another Location

Airport or City:

Trip Planner

Search our weather history database for the weather conditions in past years. The results will help you decide how hot, cold, wet, or windy it might be!

Date:

Astronomy

Jul. 01, 2014 Rise Set
Actual Time 6:21 AM EDT 9:21 PM EDT
Civil Twilight 5:48 AM EDT 9:54 PM EDT
Nautical Twilight 5:06 AM EDT 10:36 PM EDT
Astronomical Twilight 4:17 AM EDT 11:25 PM EDT
Moon 10:29 AM EDT (7/1) 11:44 PM EDT (7/1)
Length of Visible Light 16h 06m
Length of Day
15h 00m
Waxing Crescent, 16% of the Moon is Illuminated
Jul 1
Waxing Crescent
Jul 5
First Quarter
Jul 12
Full
Jul 18
Last Quarter
Jul 26
New

Hourly Weather History & Observations

Time (EDT) Temp. Heat Index Dew Point Humidity Pressure Visibility Wind Dir Wind Speed Gust Speed Precip Events Conditions
1:20 AM 66.0 °F - 64.0 °F 93% 29.86 in 2.5 mi NW 6.9 mph - 0.13 in Rain , Thunderstorm Heavy Rain
1:23 AM 66.0 °F - 64.9 °F 96% 29.87 in 1.5 mi NNW 4.6 mph - 0.21 in Rain , Thunderstorm Heavy Rain
1:30 AM 64.9 °F - 64.0 °F 97% 29.89 in 1.2 mi WNW 9.2 mph - 0.31 in Rain , Thunderstorm Heavy Thunderstorms and Rain
1:44 AM 64.9 °F - 64.0 °F 97% 29.91 in 4.0 mi WNW 11.5 mph - 0.52 in Rain , Thunderstorm Light Thunderstorms and Rain
1:54 AM 64.9 °F - 64.0 °F 97% 29.88 in 7.0 mi NW 10.4 mph - 0.54 in Rain , Thunderstorm Thunderstorms and Rain
2:00 AM 64.9 °F - 64.0 °F 97% 29.88 in 4.0 mi NW 5.8 mph - 0.02 in Rain Heavy Rain
2:54 AM 64.9 °F - 64.0 °F 97% 29.76 in 10.0 mi SE 6.9 mph - 0.05 in   Scattered Clouds
3:41 AM 64.9 °F - 64.0 °F 97% 29.76 in 10.0 mi SSW 10.4 mph 16.1 mph 0.02 in Rain Light Rain
3:54 AM 64.9 °F - 64.0 °F 97% 29.73 in 10.0 mi South 10.4 mph - 0.03 in Rain Light Rain
4:12 AM 64.9 °F - 64.0 °F 97% 29.73 in 10.0 mi South 10.4 mph - 0.00 in Rain , Thunderstorm Light Thunderstorms and Rain
4:52 AM 66.2 °F - 64.4 °F 94% 29.78 in 10.0 mi West 17.3 mph 23.0 mph 0.01 in Rain Light Rain
4:54 AM 66.0 °F - 64.0 °F 93% 29.77 in 10.0 mi WSW 11.5 mph 23.0 mph 0.01 in Rain Light Rain
5:54 AM 66.0 °F - 64.9 °F 96% 29.72 in 10.0 mi South 4.6 mph - 0.00 in   Partly Cloudy
6:54 AM 66.0 °F - 64.0 °F 93% 29.73 in 10.0 mi SSW 4.6 mph - N/A   Mostly Cloudy
8:49 AM 69.8 °F - 66.2 °F 88% 29.79 in 10.0 mi West 4.6 mph - N/A   Overcast
8:54 AM 69.1 °F - 66.0 °F 90% 29.77 in 10.0 mi West 4.6 mph - N/A   Overcast
9:54 AM 70.0 °F - 66.9 °F 90% 29.78 in 10.0 mi Calm Calm - N/A   Overcast
10:54 AM 73.0 °F - 69.1 °F 87% 29.80 in 10.0 mi West 6.9 mph - N/A   Overcast
11:49 AM 78.8 °F - 69.8 °F 74% 29.81 in 10.0 mi NW 11.5 mph - N/A   Clear
11:54 AM 78.1 °F - 69.1 °F 74% 29.80 in 10.0 mi WNW 10.4 mph - N/A   Clear
12:54 PM 82.0 °F 83.0 °F 62.1 °F 51% 29.78 in 10.0 mi WNW 8.1 mph - N/A   Clear
2:54 PM 82.0 °F 83.0 °F 62.1 °F 51% 29.79 in 10.0 mi West 9.2 mph - N/A   Clear
4:54 PM 82.9 °F 83.2 °F 60.1 °F 46% 29.80 in 10.0 mi WSW 12.7 mph - N/A   Clear
5:54 PM 82.0 °F 83.8 °F 64.9 °F 56% 29.79 in 10.0 mi SW 8.1 mph - N/A   Mostly Cloudy
6:54 PM 81.0 °F 82.5 °F 64.0 °F 56% 29.77 in 10.0 mi WSW 6.9 mph - N/A   Clear
7:54 PM 78.1 °F - 64.9 °F 64% 29.77 in 10.0 mi WSW 5.8 mph - N/A   Clear
8:54 PM 77.0 °F - 66.9 °F 71% 29.79 in 10.0 mi West 4.6 mph - N/A   Clear
9:54 PM 73.9 °F - 66.0 °F 76% 29.80 in 10.0 mi WSW 4.6 mph - N/A   Clear
10:54 PM 72.0 °F - 64.9 °F 78% 29.82 in 10.0 mi WSW 3.5 mph - N/A   Clear
11:54 PM 71.1 °F - 64.9 °F 81% 29.81 in 10.0 mi WSW 4.6 mph - N/A   Clear